Date String (YYYY-MM-DD hh:mm:ss) UTC,Instrument flags,Ambient pressure (hPa),Sample flow (lpm),Bypass flow (lpm),Sample temperature (°C),Ambient temperature (°C),ASC tube jacket temperature (°C),LED temperature (°C),Box temperature (°C),Sample RH (%),Span deviation,Mass concentration (μg/m³),Mass concentration (μg/m³),Mass concentration (μg/m³)
DateTimeUTC,F1_M11,P_M11,Q1_M11,Q2_M11,T1_M11,T2_M11,T3_M11,T4_M11,T5_M11,U1_M11,ZSPAN_M11,X0_M11,X2_M11,X1_M11
2022-07-22 17:00:00,,0829.0,4.99,0.00,29.3,27.6,00.0,38.0,31.2,17.3,0000.0,0014.73,0006.82,0005.72
2022-07-22 17:01:00,,0828.7,5.01,0.00,29.3,27.8,00.0,38.0,31.2,17.9,0000.0,0015.37,0006.80,0005.72
2022-07-22 17:02:00,,0828.8,5.00,0.00,29.3,28.0,00.0,38.0,31.3,17.2,0000.0,0015.17,0006.76,0005.71
2022-07-22 17:03:00,,0828.5,5.00,0.00,29.3,27.8,00.0,38.0,31.3,16.9,0000.0,0015.13,0006.76,0005.70
2022-07-22 17:04:00,,0828.5,5.00,0.00,29.3,27.1,00.0,37.9,31.2,16.7,0000.0,0014.68,0006.72,0005.69
2022-07-22 17:05:00,,0828.5,5.01,0.00,29.3,27.0,00.0,37.9,31.1,16.9,0000.0,0015.10,0006.74,0005.69
2022-07-22 17:06:00,,0828.5,5.01,0.00,29.3,27.1,00.0,37.9,31.1,17.7,0000.0,0015.43,0006.72,0005.68
2022-07-22 17:07:00,,0828.5,5.01,0.00,29.2,27.3,00.0,37.9,31.1,18.2,0000.0,0015.24,0006.71,0005.68
2022-07-22 17:08:00,,0828.5,5.00,0.00,29.2,27.5,00.0,37.9,31.1,17.3,0000.0,0015.16,0006.65,0005.66
2022-07-22 17:09:00,,0828.5,5.00,0.00,29.2,27.7,00.0,38.0,31.2,17.4,0000.0,0015.34,0006.64,0005.64
2022-07-22 17:10:00,,0828.5,4.99,0.00,29.3,27.9,00.0,38.0,31.2,18.1,0000.0,0015.73,0006.63,0005.64
2022-07-22 17:11:00,,0828.5,5.00,0.00,29.3,27.7,00.0,37.9,31.2,17.7,0000.0,0015.08,0006.70,0005.71
2022-07-22 17:12:00,,0828.5,5.01,0.00,29.3,27.1,00.0,37.9,31.1,17.3,0000.5,0014.22,0006.76,0005.77
2022-07-22 17:13:00,,0828.5,5.00,0.00,29.2,26.9,00.0,37.9,31.1,17.4,0000.0,0014.28,0006.83,0005.82
2022-07-22 17:14:00,,0828.4,5.00,0.00,29.2,27.0,00.0,37.9,31.0,17.8,0000.0,0014.21,0006.88,0005.88
2022-07-22 17:15:00,,0828.5,4.99,0.00,29.2,27.2,00.0,37.9,31.0,18.4,0000.0,0014.37,0006.97,0005.94
2022-07-22 17:16:00,,0828.4,5.00,0.00,29.2,27.4,00.0,37.9,31.0,18.1,0000.0,0014.30,0007.01,0006.01
2022-07-22 17:17:00,,0828.5,5.00,0.00,29.2,27.6,00.0,37.9,31.1,18.3,0000.0,0014.20,0007.07,0006.08
2022-07-22 17:18:00,,0828.5,4.99,0.00,29.2,27.8,00.0,37.9,31.2,18.5,0000.0,0014.25,0007.18,0006.14
2022-07-22 17:19:00,,0828.5,5.01,0.00,29.2,28.0,00.0,37.9,31.2,18.3,0000.0,0014.36,0007.32,0006.22
2022-07-22 17:20:00,,0828.5,5.00,0.00,29.3,27.7,00.0,37.9,31.2,17.9,0000.0,0013.97,0007.41,0006.31
2022-07-22 17:21:00,,0828.5,4.99,0.00,29.3,27.1,00.0,37.9,31.1,18.1,0000.0,0013.98,0007.48,0006.37
2022-07-22 17:22:00,,0828.5,4.99,0.00,29.2,27.0,00.0,37.8,31.1,18.6,0000.0,0014.07,0007.50,0006.37
2022-07-22 17:23:00,,0828.5,5.00,0.00,29.2,27.1,00.0,37.8,31.0,18.7,0000.0,0014.47,0007.54,0006.40
2022-07-22 17:24:00,,0828.5,5.00,0.00,29.2,27.2,00.0,37.9,31.0,19.0,0000.0,0014.93,0007.58,0006.44
2022-07-22 17:25:00,,0828.5,4.99,0.00,29.2,27.4,00.0,37.9,31.0,19.0,0000.0,0015.45,0007.62,0006.49
2022-07-22 17:26:00,,0828.5,5.00,0.00,29.2,27.6,00.0,37.9,31.1,19.0,0000.0,0015.61,0007.60,0006.51
2022-07-22 17:27:00,,0828.5,4.99,0.00,29.2,27.8,00.0,37.9,31.2,19.2,0000.0,0015.23,0007.59,0006.53
2022-07-22 17:28:00,,0828.5,5.00,0.00,29.2,27.6,00.0,37.9,31.2,19.0,0000.0,0015.44,0007.62,0006.54
2022-07-22 17:29:00,,0828.5,5.00,0.00,29.2,27.0,00.0,37.8,31.1,18.0,0000.0,0015.91,0007.61,0006.54
2022-07-22 17:30:00,,0828.6,5.01,0.00,29.2,26.9,00.0,37.8,31.0,17.8,0000.0,0016.24,0007.69,0006.54
2022-07-22 17:31:00,,0828.6,4.99,0.00,29.1,27.0,00.0,37.8,31.0,17.8,0000.0,0016.17,0007.71,0006.54
2022-07-22 17:32:00,,0828.7,5.00,0.00,29.1,27.2,00.0,37.8,31.0,18.4,0000.0,0015.69,0007.75,0006.55
2022-07-22 17:33:00,,0828.6,4.99,0.00,29.1,27.4,00.0,37.8,31.0,19.2,0000.0,0016.55,0007.77,0006.57
2022-07-22 17:34:00,,0828.8,5.01,0.00,29.1,27.6,00.0,37.9,31.1,18.9,0000.0,0016.59,0007.80,0006.59
2022-07-22 17:35:00,,0828.9,5.00,0.00,29.2,27.8,00.0,37.9,31.2,19.0,0000.0,0016.93,0007.83,0006.61
2022-07-22 17:36:00,,0828.7,4.98,0.00,29.2,27.9,00.0,37.9,31.2,19.0,0000.0,0016.84,0007.82,0006.60
2022-07-22 17:37:00,,0828.6,5.00,0.00,29.2,27.3,00.0,37.8,31.1,18.9,0000.0,0016.57,0007.84,0006.61
2022-07-22 17:38:00,,0828.5,5.01,0.00,29.2,26.9,00.0,37.8,31.1,19.3,0000.0,0016.76,0007.90,0006.62
2022-07-22 17:39:00,,0828.4,5.00,0.00,29.2,27.0,00.0,37.8,31.0,19.5,0000.0,0016.35,0007.94,0006.63
2022-07-22 17:40:00,,0828.5,5.00,0.00,29.1,27.1,00.0,37.8,31.0,19.6,0000.0,0016.07,0007.97,0006.65
2022-07-22 17:41:00,,0828.5,5.00,0.00,29.1,27.3,00.0,37.8,31.0,19.7,0000.0,0015.97,0007.92,0006.69
2022-07-22 17:42:00,,0828.5,5.01,0.00,29.1,27.5,00.0,37.8,31.0,18.9,0000.0,0016.35,0007.90,0006.70
2022-07-22 17:43:00,,0828.5,5.00,0.00,29.2,27.7,00.0,37.9,31.1,18.9,0000.0,0016.22,0007.87,0006.70
2022-07-22 17:44:00,,0828.4,4.99,0.00,29.2,27.8,00.0,37.9,31.2,19.2,0000.0,0015.12,0007.86,0006.70
2022-07-22 17:45:00,,0828.5,5.02,0.00,29.2,27.3,00.0,37.8,31.1,19.2,0000.0,0014.82,0007.84,0006.68
2022-07-22 17:46:00,,0828.4,5.00,0.00,29.2,26.9,00.0,37.8,31.0,19.4,0000.0,0014.27,0007.80,0006.64
2022-07-22 17:47:00,,0828.4,5.00,0.00,29.1,27.0,00.0,37.8,31.0,19.4,0000.0,0014.96,0007.84,0006.63
2022-07-22 17:48:00,,0828.4,5.00,0.00,29.1,27.1,00.0,37.8,31.0,19.4,0000.0,0015.59,0007.88,0006.61
2022-07-22 17:49:00,,0828.4,5.00,0.00,29.1,27.3,00.0,37.8,31.0,19.3,0000.0,0015.54,0007.81,0006.60
2022-07-22 17:50:00,,0828.5,5.00,0.00,29.1,27.5,00.0,37.8,31.0,19.2,0000.0,0015.94,0007.75,0006.59
2022-07-22 17:51:00,,0828.4,5.00,0.00,29.1,27.7,00.0,37.8,31.1,19.0,0000.0,0015.86,0007.75,0006.56
2022-07-22 17:52:00,,0828.4,5.00,0.00,29.2,27.8,00.0,37.8,31.1,18.4,0000.0,0016.34,0007.74,0006.53
2022-07-22 17:53:00,,0828.3,5.00,0.00,29.2,27.3,00.0,37.8,31.1,18.8,0000.0,0016.42,0007.69,0006.51
2022-07-22 17:54:00,,0828.3,5.00,0.00,29.1,26.9,00.0,37.7,31.0,18.6,0000.0,0016.70,0007.72,0006.50
2022-07-22 17:55:00,,0828.3,5.00,0.00,29.1,26.9,00.0,37.7,31.0,18.6,0000.0,0017.03,0007.72,0006.49
2022-07-22 17:56:00,,0828.3,5.00,0.00,29.1,27.0,00.0,37.8,30.9,18.0,0000.0,0017.15,0007.68,0006.47
2022-07-22 17:57:00,,0828.3,5.00,0.00,29.1,27.2,00.0,37.8,30.9,17.8,0000.0,0018.11,0007.68,0006.45
2022-07-22 17:58:00,,0828.3,4.99,0.00,29.1,27.4,00.0,37.8,31.0,18.0,0000.0,0018.11,0007.66,0006.44
2022-07-22 17:59:00,,0828.3,5.00,0.00,29.1,27.6,00.0,37.8,31.0,19.9,0000.0,0017.85,0007.58,0006.42
